Regional Weather Roundup
Issued by NWS

Home | Current Version | Previous Version | Graphics & Text | Print | Product List | Glossary Off
Versions: 1 2 3 4 5 6 7 8 9 10 11 12 13 14 15 16 17 18 19 20 21 22 23 24 25 26 27 28 29 30 31 32 33 34 35 36 37 38 39 40 41 42 43 44 45 46 47 48 49 50

000
ASUS43 KLSX 032210
RWRMO

WEATHER SUMMARY FOR MISSOURI
NATIONAL WEATHER SERVICE SPRINGFIELD MO
500 PM CDT THU SEP 03 2015

NOTE: "FAIR" INDICATES FEW OR NO CLOUDS BELOW 12,000 FEET WITH NO
       SIGNIFICANT WEATHER AND/OR OBSTRUCTIONS TO VISIBILITY.
       CURRENT SKY AND/OR WEATHER CONDITIONS ARE NOT AVAILABLE FOR
       CHILLICOTHE AND FARMINGTON.

MOZ001>031-035>038-043-044-053-054-032300-
...NORTHERN AND WESTERN MISSOURI...

CITY           SKY/WX    TMP DP  RH WIND       PRES   REMARKS
KANSAS CTY INT MOSUNNY   90  66  45 S14       29.89S HX  92
KANSAS C DTWN  SUNNY     91  66  43 S14       29.87F HX  93
LEE`S SUMMIT   SUNNY     89  66  46 S14G21    29.90F HX  91
ST JOSEPH      SUNNY     90  69  50 S14       29.86F HX  94
CHILLICOTHE      N/A     92  68  45 S8        29.90S HX  96
KIRKSVILLE     SUNNY     90  66  45 SW9       29.91F HX  92

$$
MOZ066>068-077>081-088>096-101>105-032300-
...SOUTHWEST MISSOURI...

CITY           SKY/WX    TMP DP  RH WIND       PRES   REMARKS
SPRINGFIELD    MOSUNNY   88  66  48 S10       29.95F HX  90
JOPLIN         SUNNY     88  69  53 S12       29.93F HX  92

$$
MOZ032>034-039>042-045>050-055>058-069>072-032300-
...CENTRAL MISSOURI...

CITY           SKY/WX    TMP DP  RH WIND       PRES   REMARKS
COLUMBIA       SUNNY     90  66  45 SW6       29.93F HX  92
JEFFERSON CITY SUNNY     92  65  40 SW6       29.90F HX  94
ROLLA          MOSUNNY   90  65  43 S8        29.94F HX  92
SEDALIA        SUNNY     92  66  42 SW10      29.93S HX  94
WHITEMAN AFB   MOSUNNY   92  67  43 SW16      29.90S HX  95
WARRENSBURG    MOSUNNY   90  64  43 S12G17    29.90S HX  91
OSAGE BEACH    MOSUNNY   93  66  40 S7        29.94S HX  96

$$
MOZ051-052-059>065-032300-
...EAST CENTRAL MISSOURI...

CITY           SKY/WX    TMP DP  RH WIND       PRES   REMARKS
ST LOUIS INTL  MOSUNNY   93  67  42 SW8       29.93F HX  96
SPIRIT OF STL  MOSUNNY   91  69  48 S7        29.92S HX  96
ST CHARLES     MOSUNNY   92  67  43 W7        29.91F HX  95

$$
MOZ072>076-082>087-097>100-106>115-032300-
...SOUTH CENTRAL AND SOUTHEAST MISSOURI...

CITY           SKY/WX    TMP DP  RH WIND       PRES   REMARKS
CAPE GIRARDEAU SUNNY     90  68  48 W5        29.93S HX  94
FARMINGTON     MOSUNNY   90  70  51 S8        29.98S HX  95
POPLAR BLUFF   SUNNY     89  64  43 SW3       29.93S HX  90
WEST PLAINS    MOSUNNY   88  65  46 S5        29.98F HX  90

$$



USA.gov is the U.S. government's official web portal to all federal, state and local government web resources and services.